CAPE
0 0 0 0 0 0 0 0 0 0 0 0 0 0 1 0 0 0 0 0 0 0 0 0 0 0 0 0 0 0 0 0 0 0 0 0 0 0 0 0 0 0 0 0
0 0 0 0 0 0 0 0 0 0 0 0 0 0 0 0 0 0 0 0 0 0 0 0 0 0 0 0 0 0 0 0 0 0 0 0 0 0 0 0 0 0 0 0
0 0 0 0 0 0 0 0 0 0 1 0 0 0 0 0 0 0 0 0 0 0 0 0 0 0 0 0 0 0 0 0 0 0 0 0 0 0 0 0 0 0 0 0
0 0 0 0 0 0 0 4 7 7 8 0 0 2 0 0 0 0 0 0 0 0 0 0 0 0 0 0 0 0 0 0 0 0 0 0 0 0 0 0 0 0 0 0
0 0 0 0 0 0 0 0 0 3 0 0 0 0 0 0 0 0 0 0 0 0 0 0 0 0 0 0 0 0 0 0 0 0 0 0 0 0 0 0 0 0 0 0
0 14 0 0 0 0 0 0 0 0 0 0 0 0 0 0 0 0 0 0 0 0 0 0 0 0 0 0 0 0 0 0 0 0 0 0 0 0 0 0 0 0 0 0
0 1 2 0 0 0 0 0 0 0 0 0 0 0 0 0 0 0 0 0 0 0 0 0 0 0 0 0 0 0 0 0 0 0 0 0 0 0 0 0 0 0 0 0
1 0 11 0 0 0 2 0 0 1 8 0 0 0 1 0 0 0 0 0 0 0 0 0 0 0 0 0 0 0 0 0 0 0 0 0 0 0 0 0 0 0 0 0
0 2 0 0 0 0 0 0 0 0 5 29 5 0 0 0 0 0 0 0 0 0 0 0 0 0 0 0 0 0 0 0 0 0 0 0 0 0 0 0 0 0 0 0
0 2 10 3 0 0 0 0 0 0 0 0 3 0 0 0 0 0 0 0 0 0 0 0 0 0 0 0 0 0 0 0 0 0 0 0 0 0 0 0 0 0 0 0
10 3 2 8 0 0 0 0 0 0 0 0 0 0 0 0 0 0 0 0 0 0 0 0 0 0 0 0 0 0 0 0 0 0 0 0 0 0 0 0 0 0 0 0
0 1 3 3 0 6 0 0 0 0 0 0 0 0 0 0 0 0 0 0 0 0 0 0 0 0 0 0 0 0 0 0 0 0 0 0 0 0 0 0 0 0 0 0
3 5 3 0 4 0 1 0 0 0 0 0 0 0 0 0 0 0 0 0 0 0 0 0 0 0 0 0 0 0 0 0 0 0 0 0 0 0 0 0 0 0 0 0
0 1 0 0 0 0 0 2 0 0 0 0 0 0 0 0 0 0 0 0 0 0 0 0 0 0 0 0 0 0 0 0 0 0 0 0 0 0 0 0 0 0 0 0
0 13 4 3 0 0 1 8 0 0 0 0 0 0 0 0 0 0 0 0 0 0 0 0 0 0 0 0 0 0 0 0 0 0 0 0 0 0 0 0 0 0 0 0
8 7 0 1 0 0 0 2 0 0 0 0 0 0 0 0 0 0 0 0 0 0 0 0 0 0 0 0 0 0 0 0 0 0 0 0 0 0 0 0 0 0 0 0
1 0 0 0 0 0 0 0 6 0 0 0 0 0 0 0 0 0 0 0 0 0 0 0 0 0 0 0 0 0 0 0 0 0 0 0 0 0 0 0 0 0 0 0
0 0 0 0 0 0 0 0 0 0 0 0 0 0 0 0 0 0 0 0 0 0 0 0 0 0 0 0 0 0 0 0 0 0 0 0 0 0 0 0 0 0 0 0
0 0 0 0 0 0 0 0 0 0 0 0 0 0 0 0 0 0 0 0 0 0 0 0 0 0 0 0 0 0 0 0 0 0 0 0 0 0 0 0 0 0 0 0
0 0 0 0 0 0 0 0 0 0 0 0 0 0 0 0 0 0 0 0 0 0 0 0 0 0 0 0 0 0 0 0 0 0 0 0 0 0 0 0 0 0 0 0
0 0 0 0 0 0 0 0 0 0 0 0 0 0 0 0 0 0 0 0 0 0 0 0 0 0 0 0 0 0 0 0 0 0 0 0 0 0 0 0 0 0 0 0
12 5 0 0 0 0 0 0 0 0 0 0 0 0 0 0 0 0 0 0 0 0 0 0 0 0 0 0 0 0 0 0 0 0 0 0 0 0 0 0 0 0 0 0
0 0 1 2 0 0 0 0 0 0 0 0 0 0 0 0 0 0 0 0 0 0 0 0 0 0 0 0 0 0 0 0 0 0 0 0 0 0 0 0 0 0 0 0
0 0 0 0 0 0 0 0 0 0 0 0 0 0 0 0 0 0 0 0 0 0 0 0 0 0 0 0 0 0 0 0 0 0 0 0 0 0 0 0 0 0 0 0
0 0 0 0 0 0 0 0 0 0 0 0 0 0 0 0 0 0 0 0 0 0 0 0 0 0 0 0 0 0 0 0 0 0 0 0 0 0 0 0 0 0 0 0
0 0 0 0 0 0 0 0 0 0 0 0 0 0 0 0 0 0 0 0 0 0 0 0 0 0 0 0 0 0 0 0 0 0 0 0 0 0 0 0 0 0 0 0
0 0 0 1 3 4 4 2 2 1 0 0 0 0 0 0 0 0 0 0 0 0 0 0 0 0 0 0 0 0 0 0 0 0 0 0 0 0 0 0 0 0 0 0
CIN
-0 -0 -0 -0 -0 -0 -0 -0 -0 -0 -0 -0 -0 -0 -8 -0 -0 -0 -0 -0 -0 -0 -0 -0 -0 -0 -0 -0 -0 -0 -0 -0 -0 -0 -0 -0 -0 -0 -0 -0 -0 -0 -0 -0
-0 -0 -0 -0 -0 -0 -0 -0 -0 -0 -0 -0 -0 -0 -0 -0 -0 -0 -0 -0 -0 -0 -0 -0 -0 -0 -0 -0 -0 -0 -0 -0 -0 -0 -0 -0 -0 -0 -0 -0 -0 -0 -0 -0
-0 -0 -0 -0 -0 -0 -0 -0 -0 -0 -3 -0 -0 -0 -0 -0 -0 -0 -0 -0 -0 -0 -0 -0 -0 -0 -0 -0 -0 -0 -0 -0 -0 -0 -0 -0 -0 -0 -0 -0 -0 -0 -0 -0
-0 -0 -0 -0 -0 -0 -0 -3 -7 -5 -6 -0 -0 -22 -6 -0 -0 -0 -0 -0 -0 -0 -0 -0 -0 -0 -0 -0 -0 -0 -0 -0 -0 -0 -0 -0 -0 -0 -0 -0 -0 -0 -0 -0
-0 -0 -0 -0 -0 -0 -0 -0 -0 -4 -0 -0 -0 -2 -0 -0 -0 -0 -0 -0 -0 -0 -0 -0 -0 -0 -0 -0 -0 -0 -0 -0 -0 -0 -0 -0 -0 -0 -0 -0 -0 -0 -0 -0
-0 -5 -0 -0 -0 -0 -0 -0 -0 -0 -0 -0 -0 -0 -0 -0 -0 -0 -0 -0 -0 -0 -0 -0 -0 -0 -0 -0 -0 -0 -0 -0 -0 -0 -0 -0 -0 -0 -0 -0 -0 -0 -0 -0
-0 -3 -2 -0 -0 -0 -0 -0 -0 -0 -0 -0 -0 -0 -0 -0 -0 -0 -0 -0 -0 -0 -0 -0 -0 -0 -0 -0 -0 -0 -0 -0 -0 -0 -0 -0 -0 -0 -0 -0 -0 -0 -0 -0
-2 -4 -4 -0 -0 -0 -22 -0 -0 -10 -35 -0 -0 -0 -92 -0 -0 -0 -0 -0 -0 -0 -0 -0 -0 -0 -0 -0 -0 -0 -0 -0 -0 -0 -0 -0 -0 -0 -0 -0 -0 -0 -0 -0
-0 -7 -0 -0 -0 -0 -0 -0 -0 -0 -79 -135 -146 -0 -0 -0 -0 -0 -0 -0 -0 -0 -0 -0 -0 -0 -0 -0 -0 -0 -0 -0 -0 -0 -0 -0 -0 -0 -0 -0 -0 -0 -0 -0
-0 -0 -0 -0 -0 -0 -0 -0 -0 -0 -0 -0 -101 -0 -0 -0 -0 -0 -0 -0 -0 -0 -0 -0 -0 -0 -0 -0 -0 -0 -0 -0 -0 -0 -0 -0 -0 -0 -0 -0 -0 -0 -0 -0
-2 -0 -5 -0 -0 -0 -0 -0 -0 -0 -0 -0 -0 -0 -0 -0 -0 -0 -0 -0 -0 -0 -0 -0 -0 -0 -0 -0 -0 -0 -0 -0 -0 -0 -0 -0 -0 -0 -0 -0 -0 -0 -0 -0
-0 -0 -0 -0 -0 -0 -0 -0 -0 -0 -0 -0 -0 -0 -0 -0 -0 -0 -0 -0 -0 -0 -0 -0 -0 -0 -0 -0 -0 -0 -0 -0 -0 -0 -0 -0 -0 -0 -0 -0 -0 -0 -0 -0
-0 -0 -0 -0 -0 -0 -0 -0 -0 -0 -0 -0 -0 -0 -0 -0 -0 -0 -0 -0 -0 -0 -0 -0 -0 -0 -0 -0 -0 -0 -0 -0 -0 -0 -0 -0 -0 -0 -0 -0 -0 -0 -0 -0
-0 -0 -0 -0 -0 -0 -0 -0 -0 -0 -0 -0 -0 -0 -0 -0 -0 -0 -0 -0 -0 -0 -0 -0 -0 -0 -0 -0 -0 -0 -0 -0 -0 -0 -0 -0 -0 -0 -0 -0 -0 -0 -0 -0
-0 -0 -0 -0 -0 -0 -0 -0 -0 -0 -0 -0 -0 -0 -0 -0 -0 -0 -0 -0 -0 -0 -0 -0 -0 -0 -0 -0 -0 -0 -0 -0 -0 -0 -0 -0 -0 -0 -0 -0 -0 -0 -0 -0
-2 -10 -0 -0 -0 -0 -1 -13 -0 -0 -0 -0 -0 -0 -0 -0 -0 -0 -0 -0 -0 -0 -0 -0 -0 -0 -0 -0 -0 -0 -0 -0 -0 -0 -0 -0 -0 -0 -0 -0 -0 -0 -0 -0
-0 -0 -0 -0 -0 -0 -0 -0 -0 -0 -0 -0 -0 -0 -0 -0 -0 -0 -0 -0 -0 -0 -0 -0 -0 -0 -0 -0 -0 -0 -0 -0 -0 -0 -0 -0 -0 -0 -0 -0 -0 -0 -0 -0
-0 -0 -0 -0 -0 -0 -0 -0 -0 -0 -0 -0 -0 -0 -0 -0 -0 -0 -0 -0 -0 -0 -0 -0 -0 -0 -0 -0 -0 -0 -0 -0 -0 -0 -0 -0 -0 -0 -0 -0 -0 -0 -0 -0
-0 -0 -0 -0 -0 -0 -0 -0 -0 -0 -0 -0 -0 -0 -0 -0 -0 -0 -0 -0 -0 -0 -0 -0 -0 -0 -0 -0 -0 -0 -0 -0 -0 -0 -0 -0 -0 -0 -0 -0 -0 -0 -0 -0
-0 -0 -0 -0 -0 -0 -0 -0 -0 -0 -0 -0 -0 -0 -0 -0 -0 -0 -0 -0 -0 -0 -0 -0 -0 -0 -0 -0 -0 -0 -0 -0 -0 -0 -0 -0 -0 -0 -0 -0 -0 -0 -0 -0
-0 -0 -0 -0 -0 -0 -0 -0 -0 -0 -0 -0 -0 -0 -0 -0 -0 -0 -0 -0 -0 -0 -0 -0 -0 -0 -0 -0 -0 -0 -0 -0 -0 -0 -0 -0 -0 -0 -0 -0 -0 -0 -0 -0
-29 -25 -0 -0 -0 -0 -0 -0 -0 -0 -0 -0 -0 -0 -0 -0 -0 -0 -0 -0 -0 -0 -0 -0 -0 -0 -0 -0 -0 -0 -0 -0 -0 -0 -0 -0 -0 -0 -0 -0 -0 -0 -0 -0
-0 -7 -42 -49 -0 -0 -0 -0 -0 -0 -0 -0 -0 -0 -0 -0 -0 -0 -0 -0 -0 -0 -0 -0 -0 -0 -0 -0 -0 -0 -0 -0 -0 -0 -0 -0 -0 -0 -0 -0 -0 -0 -0 -0
-0 -0 -0 -0 -0 -0 -0 -0 -0 -0 -0 -0 -0 -0 -0 -0 -0 -0 -0 -0 -0 -0 -0 -0 -0 -0 -0 -0 -0 -0 -0 -0 -0 -0 -0 -0 -0 -0 -0 -0 -0 -0 -0 -0
-0 -0 -0 -0 -0 -0 -0 -0 -0 -0 -0 -0 -0 -0 -0 -0 -0 -0 -0 -0 -0 -0 -0 -0 -0 -0 -0 -0 -0 -0 -0 -0 -0 -0 -0 -0 -0 -0 -0 -0 -0 -0 -0 -0
-0 -0 -0 -0 -0 -0 -0 -0 -0 -0 -0 -0 -0 -0 -0 -0 -0 -0 -0 -0 -0 -0 -0 -0 -0 -0 -0 -0 -0 -0 -0 -0 -0 -0 -0 -0 -0 -0 -0 -0 -0 -0 -0 -0
-0 -0 -0 -1 -1 -1 -1 -1 -0 -0 -0 -0 -0 -0 -0 -0 -0 -0 -0 -0 -0 -0 -0 -0 -0 -0 -0 -0 -0 -0 -0 -0 -0 -0 -0 -0 -0 -0 -0 -0 -0 -0 -0 -0
Wind_Speed
45 35 31 36 39 35 35 34 34 29 31 22 18 15 12 9 8 7 8 12 14 16 18 19 17 14 10 7 9 10 9 8 7 5 3 1 1 2 2 4 5 6 7 9
45 43 34 36 36 37 39 35 38 34 30 26 18 15 12 9 6 8 9 10 13 17 20 20 18 16 12 10 9 11 12 10 7 5 4 3 2 1 2 3 4 5 7 8
47 42 43 44 37 38 39 38 35 35 30 19 18 17 14 10 7 6 8 10 13 16 18 18 18 17 15 12 10 14 13 11 9 7 6 4 3 3 4 3 3 4 6 7
38 35 48 47 38 36 34 35 31 32 25 21 21 21 19 16 12 10 8 10 11 12 14 16 17 17 15 13 13 15 14 13 11 9 7 6 5 5 4 2 3 4 5 6
35 40 33 35 32 34 35 34 30 30 24 22 25 24 23 20 17 12 8 9 10 11 13 16 18 18 17 16 14 15 15 14 12 10 9 7 7 5 3 2 1 3 4 5
29 32 40 34 27 27 29 43 28 27 26 23 20 23 23 20 17 15 12 12 10 9 10 15 18 19 19 17 16 16 16 14 12 10 9 8 6 5 2 1 1 2 4 5
34 31 27 22 25 22 34 32 25 24 23 23 24 25 22 19 19 17 15 13 12 10 11 14 17 19 18 17 17 15 14 12 12 11 9 7 6 4 3 2 1 2 3 5
32 33 34 22 21 28 25 25 25 28 24 20 20 21 18 19 17 16 15 13 11 11 11 13 17 20 19 18 14 14 14 14 12 11 9 8 7 5 4 3 2 2 3 5
28 27 20 19 20 23 25 28 25 24 25 23 21 20 21 18 19 18 16 15 14 13 12 13 16 19 21 17 15 14 14 14 13 12 11 9 8 7 6 5 4 3 3 5
23 25 21 17 17 19 20 22 22 21 19 19 21 22 21 23 21 20 17 16 15 15 14 14 15 17 18 17 16 16 16 15 13 13 12 10 9 8 8 7 5 4 5 6
26 22 25 18 18 19 19 17 17 15 14 14 13 13 15 16 20 21 19 17 16 16 15 15 15 15 16 18 18 18 16 16 14 13 13 12 10 10 9 8 6 6 6 7
22 20 23 24 22 19 16 14 16 14 13 13 13 13 14 15 16 17 18 17 17 18 18 17 16 15 15 17 18 18 17 16 15 14 14 13 12 12 14 12 8 9 9 9
23 24 22 21 21 20 17 18 15 13 14 16 15 15 16 17 18 18 18 17 20 20 21 20 19 17 16 16 18 19 17 17 16 15 14 14 13 13 12 13 12 9 10 9
25 23 21 20 21 23 24 21 16 15 15 16 17 16 16 17 17 18 20 20 20 21 21 20 20 20 17 17 17 17 17 17 16 16 15 14 14 14 12 12 11 10 10 9
27 22 23 22 22 20 21 23 16 14 14 14 16 17 17 18 18 18 19 20 19 20 21 21 21 21 19 18 18 18 17 16 16 16 15 14 13 13 13 12 11 10 9 9
22 23 22 22 21 20 20 22 21 16 15 15 16 18 18 18 18 19 19 19 20 22 22 22 23 23 20 20 19 19 18 17 16 15 15 14 13 12 12 12 12 11 10 8
25 22 22 24 24 23 19 18 20 21 20 17 16 16 17 18 18 19 20 20 21 22 23 24 24 21 20 20 20 20 19 18 17 16 15 15 14 13 12 12 12 11 10 8
31 30 26 23 23 23 21 19 17 18 20 21 20 17 17 17 18 19 19 19 18 18 20 23 24 22 21 21 20 20 19 19 18 17 16 15 15 14 12 12 12 11 10 9
26 28 26 26 23 18 21 20 20 20 19 18 17 16 16 17 17 16 17 17 19 22 23 22 21 22 22 22 22 21 20 19 19 19 18 16 15 14 12 11 12 12 11 10
12 13 14 16 16 14 14 14 14 15 16 16 16 17 18 18 19 19 17 17 19 21 22 20 18 19 21 21 21 21 21 19 18 19 18 16 15 14 12 11 11 11 11 11
11 11 11 10 10 12 13 13 14 15 15 16 16 17 18 20 22 22 21 20 20 21 21 19 18 19 19 18 18 20 20 20 19 18 18 18 16 15 14 13 11 11 11 10
13 14 15 16 17 18 19 20 20 20 20 20 20 20 21 20 22 23 23 22 23 23 22 21 21 21 22 21 20 21 21 20 21 19 19 19 18 17 16 14 12 11 10 10
17 17 18 20 23 24 25 26 26 26 26 26 26 25 25 25 25 25 27 26 27 26 24 22 23 22 21 22 23 25 24 23 21 20 20 19 19 18 17 16 13 12 10 9
22 23 24 24 25 27 29 29 29 30 31 32 32 30 30 31 31 29 28 29 31 31 30 27 26 24 22 22 23 24 24 24 23 21 20 19 18 18 18 17 15 13 11 9
26 27 28 29 30 31 32 33 35 35 36 37 37 36 35 35 36 37 37 35 34 34 34 33 34 30 26 25 24 23 23 23 22 21 20 19 19 19 18 19 17 13 12 10
31 32 32 33 33 34 35 37 39 40 40 42 42 41 40 40 41 42 42 42 40 39 38 35 34 34 33 31 28 27 25 24 23 21 20 20 20 20 19 19 16 13 12 11
31 31 34 36 36 38 39 40 42 44 44 46 49 46 46 47 47 47 47 46 46 45 43 41 38 36 36 35 33 29 28 27 24 21 20 19 20 21 20 16 15 14 14 14
Wind_Direction
242 249 252 244 242 240 241 245 249 256 255 259 262 262 266 284 259 226 189 173 174 172 172 171 173 176 179 180 161 158 167 168 169 180 207 187 119 76 37 32 21 17 18 23
242 243 250 246 245 241 243 245 250 254 257 257 256 255 259 266 258 223 204 190 179 170 168 173 177 179 179 174 171 162 162 165 180 191 182 161 154 116 61 47 32 21 22 31
239 241 243 246 244 245 245 245 247 247 254 251 248 246 249 245 241 213 196 193 178 177 175 175 176 176 178 179 171 165 164 166 170 170 169 168 157 138 118 99 47 31 36 47
241 239 238 243 246 248 248 246 246 250 252 247 250 251 251 248 243 243 230 214 205 190 181 178 175 174 175 175 170 169 169 169 168 170 170 165 157 146 128 102 77 52 41 41
240 238 247 244 243 243 243 246 247 246 253 254 253 254 255 249 249 251 224 216 208 191 180 175 174 173 172 172 172 173 172 172 172 174 174 170 165 160 146 121 73 30 31 40
244 238 237 246 246 248 248 246 249 248 250 248 247 249 254 247 251 257 255 248 228 212 188 172 173 171 172 174 176 177 178 179 182 185 184 182 180 174 185 205 4 15 22 27
240 242 245 256 257 250 240 251 249 248 249 244 244 253 256 255 252 253 254 247 237 221 194 183 173 174 179 181 181 184 187 191 189 192 196 200 197 206 213 226 311 351 11 12
242 240 243 274 256 247 260 263 267 254 249 244 244 252 256 259 254 247 247 241 229 218 209 194 178 176 182 186 193 193 190 190 194 201 209 218 215 222 221 238 273 314 346 353
247 244 267 274 266 273 274 267 271 265 251 248 246 251 255 259 257 255 249 247 238 229 219 202 189 183 183 190 195 193 195 196 200 205 210 217 215 221 231 240 269 289 317 336
254 251 258 273 282 287 286 274 272 270 262 247 247 252 259 258 258 254 255 252 244 236 228 211 199 195 193 194 192 193 197 201 203 204 210 221 225 228 237 245 256 280 305 325
257 259 255 262 286 290 289 287 278 275 261 249 249 254 260 263 259 259 262 257 247 240 236 222 217 212 206 197 191 192 201 205 204 212 210 220 225 231 235 245 254 277 301 320
256 269 260 259 274 288 290 294 279 268 267 267 261 262 265 268 272 269 263 259 255 250 249 240 227 220 212 203 199 196 199 211 218 223 221 228 232 249 270 273 261 286 307 318
267 270 271 272 267 277 279 270 285 282 273 268 270 272 272 272 274 274 271 267 261 258 254 249 241 233 222 212 209 205 206 212 221 223 225 229 232 239 243 269 280 277 294 307
276 268 265 272 270 267 260 275 295 292 285 281 276 276 278 280 278 278 274 272 270 264 259 254 246 240 229 219 215 214 215 217 221 223 227 230 233 239 244 245 247 266 285 298
270 270 263 269 265 276 266 266 277 293 303 290 287 283 283 281 283 284 282 278 275 269 266 258 252 244 233 226 222 221 220 226 228 230 229 231 237 244 246 250 254 266 280 287
271 266 269 268 271 280 277 262 262 279 287 300 302 296 290 289 287 288 289 285 277 273 271 265 258 251 238 231 229 231 228 228 224 229 234 234 240 245 246 248 253 260 269 278
263 267 270 268 268 271 279 279 268 271 281 290 305 314 302 294 294 291 289 288 285 281 277 270 263 256 242 236 232 238 237 238 231 237 238 237 242 245 248 247 248 254 264 270
256 263 272 275 271 268 273 281 281 276 272 274 282 297 310 310 302 298 295 297 294 294 292 280 269 259 250 241 235 238 238 240 233 238 243 242 245 250 252 249 249 254 267 277
263 264 268 264 269 284 278 276 281 285 289 293 292 299 305 311 316 312 308 303 297 292 294 288 277 264 257 249 242 243 240 241 239 245 246 247 246 248 250 251 252 256 262 273
285 284 282 278 279 285 295 298 298 301 304 305 303 294 295 305 307 307 307 308 304 299 300 296 287 274 265 256 242 246 244 243 241 244 244 243 239 238 244 249 254 256 258 266
300 298 296 297 297 286 287 297 295 298 305 311 307 306 304 292 293 296 291 291 302 307 304 303 293 281 273 268 248 252 251 248 247 244 243 241 240 238 243 250 255 258 258 262
306 298 290 286 282 282 280 283 285 288 292 301 305 303 299 298 290 288 291 287 290 300 304 302 298 289 277 267 260 260 259 256 252 251 251 246 242 241 243 246 250 257 259 261
308 303 296 288 281 280 280 280 282 282 285 287 285 290 294 292 290 292 283 283 287 289 294 297 299 295 286 274 268 265 263 261 259 257 256 252 248 245 243 244 250 255 255 250
305 301 298 296 293 287 281 284 281 281 280 281 283 287 286 285 284 281 286 283 282 284 282 284 286 288 291 285 278 272 269 267 265 264 263 259 253 247 247 248 250 254 253 247
298 297 297 294 291 288 289 285 282 282 281 279 280 281 282 281 278 276 275 278 281 279 276 274 272 278 283 284 282 280 275 273 270 268 266 264 261 255 253 254 254 252 252 250
293 295 296 296 294 294 292 289 283 283 282 280 281 282 281 281 279 276 273 272 273 273 272 275 275 272 272 273 275 275 275 274 272 271 270 269 266 262 258 257 255 248 246 250
303 307 297 295 295 294 292 290 287 284 285 283 280 282 280 279 277 274 273 271 269 267 269 270 271 272 269 269 270 272 272 271 272 272 272 271 270 268 265 259 256 253 256 258